| time (UTC) | temp F | wind direction | speed knots | gust knots | rain 1hr in | rain 24hr in | rain mn in | humidity % | barometer mb |
| 20260506041526 | 67 | 182 | 1.7 | 4.3 | 0.00 | 0.04 | 0.04 | 79 | 1008.3 |
| 20260506040022 | 68 | 109 | 0.9 | 3.5 | 0.00 | 0.04 | 0.04 | 79 | 1008.4 |
| 20260506034519 | 69 | 304 | 0.0 | 2.6 | 0.00 | 0.04 | 0.04 | 80 | 1008.0 |
| 20260506033015 | 70 | 128 | 0.0 | 1.7 | 0.00 | 0.04 | 0.04 | 80 | 1007.8 |
| 20260506031517 | 70 | 307 | 0.9 | 3.5 | 0.00 | 0.04 | 0.04 | 79 | 1007.8 |
| 20260506030012 | 71 | 42 | 0.0 | 4.3 | 0.00 | 0.04 | 0.04 | 79 | 1007.4 |
| 20260506024509 | 73 | 79 | 1.7 | 7.0 | 0.00 | 0.04 | 0.04 | 78 | 1006.8 |
| 20260506023007 | 73 | 103 | 0.0 | 1.7 | 0.00 | 0.04 | 0.04 | 81 | 1005.9 |
| 20260506021507 | 74 | 1 | 0.0 | 1.7 | 0.00 | 0.04 | 0.04 | 80 | 1006.2 |
| 20260506020005 | 74 | 84 | 0.0 | 1.7 | 0.00 | 0.04 | 0.04 | 80 | 1005.9 |
| 20260506014510 | 75 | 49 | 0.0 | 0.9 | 0.00 | 0.04 | 0.04 | 80 | 1005.6 |
| 20260506013005 | 77 | 23 | 0.9 | 5.2 | 0.03 | 0.04 | 0.04 | 82 | 1005.7 |
| 20260506011504 | 78 | 240 | 0.0 | 1.7 | 0.04 | 0.04 | 0.04 | 86 | 1004.9 |
| 20260506010003 | 78 | 122 | 0.0 | 1.7 | 0.04 | 0.04 | 0.04 | 86 | 1004.7 |
| 20260506004503 | 79 | 240 | 0.0 | 3.5 | 0.04 | 0.04 | 0.04 | 84 | 1004.9 |
| 20260506003003 | 80 | 204 | 0.0 | 6.1 | 0.01 | 0.01 | 0.01 | 81 | 1004.7 |
| 20260506001502 | 81 | 215 | 0.9 | 7.0 | 0.00 | 0.00 | 0.00 | 77 | 1004.4 |
| 20260506000002 | 82 | 226 | 2.6 | 5.2 | 0.00 | 0.00 | 0.00 | 74 | 1003.7 |
| 20260505234502 | 83 | 175 | 1.7 | 4.3 | 0.00 | 0.00 | 0.00 | 74 | 1003.7 |
| 20260505233101 | 84 | 244 | 2.6 | 9.6 | 0.00 | 0.00 | 0.00 | 72 | 1003.7 |
| 20260505233001 | 84 | 123 | 2.6 | 9.6 | 0.00 | 0.00 | 0.00 | 72 | 1003.7 |
| 20260505231601 | 85 | 181 | 1.7 | 5.2 | 0.00 | 0.00 | 0.00 | 71 | 1003.7 |
| 20260505230058 | 86 | 224 | 0.9 | 10.4 | 0.00 | 0.00 | 0.00 | 69 | 1003.5 |
| 20260505224558 | 86 | 112 | 2.6 | 11.3 | 0.00 | 0.00 | 0.00 | 68 | 1003.7 |
| 20260505223156 | 87 | 44 | 2.6 | 7.8 | 0.00 | 0.00 | 0.00 | 67 | 1003.3 |
| 20260505221608 | 88 | 288 | 1.7 | 5.2 | 0.00 | 0.00 | 0.00 | 66 | 1003.5 |
| 20260505220137 | 89 | 148 | 1.7 | 7.0 | 0.00 | 0.00 | 0.00 | 66 | 1003.4 |
| 20260505214614 | 88 | 91 | 2.6 | 7.0 | 0.00 | 0.00 | 0.00 | 66 | 1003.7 |
| 20260505213051 | 88 | 233 | 3.5 | 8.7 | 0.00 | 0.00 | 0.00 | 66 | 1003.7 |
| 20260505211606 | 88 | 98 | 2.6 | 11.3 | 0.00 | 0.00 | 0.00 | 66 | 1003.7 |
| 20260505210047 | 88 | 241 | 3.5 | 9.6 | 0.00 | 0.00 | 0.00 | 66 | 1003.8 |
| 20260505204546 | 87 | 248 | 3.5 | 9.6 | 0.00 | 0.00 | 0.00 | 66 | 1004.2 |
| 20260505203046 | 86 | 269 | 1.7 | 11.3 | 0.00 | 0.00 | 0.00 | 68 | 1004.2 |
| 20260505201543 | 85 | 262 | 2.6 | 11.3 | 0.00 | 0.00 | 0.00 | 68 | 1004.3 |
| 20260505200046 | 86 | 252 | 3.5 | 7.8 | 0.00 | 0.00 | 0.00 | 68 | 1004.4 |
| 20260505194539 | 85 | 243 | 4.3 | 10.4 | 0.00 | 0.00 | 0.00 | 70 | 1004.6 |
| 20260505193037 | 84 | 101 | 3.5 | 13.0 | 0.00 | 0.00 | 0.00 | 70 | 1004.5 |
| 20260505191534 | 83 | 186 | 2.6 | 11.3 | 0.00 | 0.00 | 0.00 | 72 | 1004.6 |
| 20260505190034 | 82 | 248 | 5.2 | 11.3 | 0.00 | 0.00 | 0.00 | 71 | 1004.8 |
| 20260505184531 | 82 | 252 | 5.2 | 13.0 | 0.00 | 0.00 | 0.00 | 72 | 1004.9 |
| 20260505183042 | 82 | 263 | 2.6 | 7.8 | 0.00 | 0.00 | 0.00 | 72 | 1004.9 |
| 20260505181530 | 83 | 229 | 4.3 | 11.3 | 0.00 | 0.00 | 0.00 | 71 | 1005.0 |
| 20260505180027 | 82 | 151 | 2.6 | 11.3 | 0.00 | 0.00 | 0.00 | 72 | 1005.1 |
| 20260505174526 | 82 | 247 | 5.2 | 10.4 | 0.00 | 0.00 | 0.00 | 72 | 1005.1 |
| 20260505173025 | 81 | 238 | 5.2 | 12.2 | 0.00 | 0.00 | 0.00 | 73 | 1005.1 |
| 20260505171522 | 81 | 53 | 3.5 | 11.3 | 0.00 | 0.00 | 0.00 | 73 | 1005.5 |
| 20260505170022 | 79 | 300 | 5.2 | 19.1 | 0.00 | 0.00 | 0.00 | 74 | 1005.4 |
| 20260505164519 | 80 | 231 | 4.3 | 13.0 | 0.00 | 0.00 | 0.00 | 74 | 1005.3 |
| 20260505163016 | 79 | 117 | 4.3 | 13.0 | 0.00 | 0.00 | 0.00 | 75 | 1005.2 |
| 20260505161515 | 78 | 231 | 6.1 | 13.0 | 0.00 | 0.00 | 0.00 | 76 | 1005.0 |
| 20260505153006 | 76 | 276 | 3.5 | 11.3 | 0.00 | 0.00 | 0.00 | 80 | 1005.3 |
| 20260505151509 | 75 | 240 | 4.3 | 13.9 | 0.00 | 0.00 | 0.00 | 80 | 1005.3 |
| 20260505124556 | 71 | 141 | 1.7 | 8.7 | 0.00 | 0.00 | 0.00 | 86 | 1004.8 |
| 20260505123046 | 71 | 129 | 3.5 | 12.2 | 0.00 | 0.00 | 0.00 | 86 | 1004.6 |
| 20260505121547 | 71 | 80 | 2.6 | 9.6 | 0.00 | 0.00 | 0.00 | 86 | 1004.6 |
| 20260505120049 | 70 | 302 | 4.3 | 9.6 | 0.00 | 0.00 | 0.00 | 86 | 1004.5 |
| 20260505114545 | 70 | 104 | 2.6 | 8.7 | 0.00 | 0.00 | 0.00 | 86 | 1004.3 |
| 20260505113040 | 70 | 265 | 2.6 | 10.4 | 0.00 | 0.00 | 0.00 | 86 | 1004.0 |
| 20260505111539 | 70 | 233 | 2.6 | 8.7 | 0.00 | 0.00 | 0.00 | 86 | 1004.2 |
| 20260505101542 | 70 | 227 | 3.5 | 8.7 | 0.00 | 0.00 | 0.00 | 86 | 1004.2 |
| 20260505100033 | 70 | 110 | 2.6 | 8.7 | 0.00 | 0.00 | 0.00 | 86 | 1004.5 |
| 20260505094532 | 70 | 225 | 2.6 | 7.8 | 0.00 | 0.00 | 0.00 | 86 | 1004.6 |
| 20260505093031 | 70 | 137 | 3.5 | 11.3 | 0.00 | 0.00 | 0.00 | 85 | 1004.8 |
| 20260505091530 | 70 | 259 | 3.5 | 12.2 | 0.00 | 0.00 | 0.00 | 86 | 1004.6 |
| 20260505090028 | 70 | 257 | 4.3 | 11.3 | 0.00 | 0.00 | 0.00 | 86 | 1004.6 |
| 20260505084535 | 70 | 353 | 2.6 | 8.7 | 0.00 | 0.00 | 0.00 | 85 | 1004.5 |
| 20260505083027 | 70 | 255 | 4.3 | 12.2 | 0.00 | 0.00 | 0.00 | 85 | 1004.6 |
| 20260505081523 | 70 | 231 | 2.6 | 9.6 | 0.00 | 0.00 | 0.00 | 85 | 1004.6 |
| 20260505080021 | 70 | 154 | 3.5 | 8.7 | 0.00 | 0.00 | 0.00 | 85 | 1004.8 |
| 20260505074518 | 70 | 230 | 3.5 | 11.3 | 0.00 | 0.00 | 0.00 | 85 | 1005.0 |
| 20260505073025 | 70 | 200 | 2.6 | 11.3 | 0.00 | 0.00 | 0.00 | 84 | 1005.4 |
| 20260505071514 | 71 | 110 | 2.6 | 11.3 | 0.00 | 0.00 | 0.00 | 84 | 1005.6 |
| 20260505070017 | 71 | 84 | 2.6 | 12.2 | 0.00 | 0.00 | 0.00 | 83 | 1005.8 |
| 20260505064510 | 71 | 242 | 3.5 | 11.3 | 0.00 | 0.00 | 0.00 | 83 | 1005.6 |
| 20260505063011 | 71 | 178 | 3.5 | 8.7 | 0.00 | 0.00 | 0.00 | 82 | 1005.8 |
| 20260505061507 | 71 | 207 | 3.5 | 13.0 | 0.00 | 0.00 | 0.00 | 81 | 1005.9 |
| 20260505060007 | 71 | 127 | 1.7 | 11.3 | 0.00 | 0.00 | 0.00 | 81 | 1006.1 |
| 20260505054503 | 71 | 264 | 4.3 | 12.2 | 0.00 | 0.00 | 0.00 | 81 | 1006.1 |
| 20260505053002 | 72 | 142 | 2.6 | 9.6 | 0.00 | 0.00 | 0.00 | 80 | 1006.2 |
| 20260505051600 | 72 | 57 | 1.7 | 9.6 | 0.00 | 0.00 | 0.00 | 80 | 1006.4 |